Waarnemingen

Advertentie
Mijn weer
Murcia, Spanje (8430): temperatuur & dauwpunt: 14.08.2018 01:00:00 - 20.08.2018 01:00:00 (CEST)Murcia, Spanje (8430): windsnelheid: 14.08.2018 01:00:00 - 20.08.2018 01:00:00 (CEST)Murcia, Spanje (8430): windrichting: 14.08.2018 01:00:00 - 20.08.2018 01:00:00 (CEST)Murcia, Spanje (8430): luchtdruk: 14.08.2018 01:00:00 - 20.08.2018 01:00:00 (CEST)Murcia, Spanje (8430): zicht: 14.08.2018 01:00:00 - 20.08.2018 01:00:00 (CEST)Murcia, Spanje (8430): neerslag: 14.08.2018 01:00:00 - 20.08.2018 01:00:00 (CEST)
Datum & Tijd tt [°C] td [°C] ff [km/u] ff [kn] dd ppp [hPa] vv [km] rr [mm]
20.08.2018 01:00:00 23,2 19,4 4 2 N 1019,7 20 0,0
20.08.2018 00:00:00 24,1 19,4 2 1 NO 1019,8 20 0,0
19.08.2018 23:00:00 25,0 19,4 5 3 ONO 1019,7 20 -
19.08.2018 22:00:00 25,8 19,2 9 5 O 1018,9 20 0,0
19.08.2018 21:00:00 26,5 18,9 9 5 O 1018,5 20 0,0
19.08.2018 20:00:00 27,9 18,9 13 7 O 1018,1 20 -
19.08.2018 19:00:00 28,6 18,4 13 7 ONO 1018,2 20 0,0
19.08.2018 18:00:00 29,8 18,6 18 10 O 1018,3 20 0,0
19.08.2018 17:00:00 30,6 18,3 16 9 O 1018,1 20 -
19.08.2018 16:00:00 30,0 19,1 15 8 O 1018,6 20 0,0
19.08.2018 15:00:00 28,9 19,5 13 7 O 1019,4 20 0,0
19.08.2018 14:00:00 29,0 19,3 13 7 O 1019,7 20 -
19.08.2018 13:00:00 28,2 20,0 11 6 O 1020,0 20 0,0
19.08.2018 12:00:00 27,3 20,1 5 3 OZO 1020,3 20 0,0
19.08.2018 11:00:00 25,4 20,4 5 3 Z 1020,4 20 -
19.08.2018 10:00:00 24,0 20,1 4 2 ZW 1020,3 19 0,0
19.08.2018 09:00:00 23,5 20,2 2 1 NW 1020,0 17 0,0
19.08.2018 08:00:00 23,6 19,3 5 3 NNW 1019,8 17 -
19.08.2018 07:00:00 23,3 19,7 5 3 NNW 1019,4 20 0,0
19.08.2018 06:00:00 23,9 19,8 0 0 N 1019,2 20 0,0
19.08.2018 05:00:00 23,6 19,9 2 1 Z 1019,4 20 -
19.08.2018 04:00:00 23,8 19,9 4 2 NNO 1019,4 20 0,0
19.08.2018 03:00:00 23,6 19,7 8 4 NO 1019,5 20 0,0
19.08.2018 02:00:00 23,8 19,7 9 5 NNO 1019,5 20 -
19.08.2018 01:00:00 24,3 19,6 9 5 ONO 1019,5 20 0,0
19.08.2018 00:00:00 24,5 20,0 13 7 ONO 1019,6 20 0,0
18.08.2018 23:00:00 24,8 20,3 11 6 ONO 1019,1 20 -
18.08.2018 22:00:00 25,2 19,6 13 7 ONO 1018,8 20 0,0
18.08.2018 21:00:00 25,9 19,5 15 8 ONO 1017,9 20 0,0
18.08.2018 20:00:00 26,8 19,9 15 8 O 1017,5 20 -
18.08.2018 19:00:00 27,4 19,5 18 10 O 1017,6 20 0,0
18.08.2018 18:00:00 28,4 19,3 16 9 O 1017,2 20 0,0
18.08.2018 17:00:00 29,3 19,3 16 9 O 1017,0 20 -
18.08.2018 16:00:00 30,3 18,4 16 9 O 1017,1 20 0,0
18.08.2018 15:00:00 30,5 18,2 9 5 O 1017,5 20 0,0
18.08.2018 14:00:00 30,2 18,0 9 5 O 1018,1 20 -
18.08.2018 13:00:00 29,2 19,2 11 6 ONO 1018,8 20 0,0
18.08.2018 12:00:00 28,6 19,8 5 3 O 1019,2 20 0,0
18.08.2018 11:00:00 25,9 19,5 2 1 ZZO 1019,2 20 -
18.08.2018 10:00:00 24,1 19,6 4 2 Z 1019,2 15 0,0
18.08.2018 09:00:00 23,4 18,3 8 4 NW 1018,9 20 0,0
18.08.2018 08:00:00 22,5 18,3 4 2 W 1018,7 20 -
18.08.2018 07:00:00 22,1 18,1 2 1 W 1018,3 20 0,0
18.08.2018 06:00:00 22,2 19,0 2 1 WNW 1018,0 20 0,0
18.08.2018 05:00:00 22,6 19,4 2 1 NW 1017,9 19 -
18.08.2018 04:00:00 23,1 20,1 4 2 NO 1017,9 20 0,0
18.08.2018 03:00:00 23,9 20,4 8 4 ONO 1017,9 20 0,0
18.08.2018 02:00:00 24,2 20,5 11 6 NO 1017,9 20 -
18.08.2018 01:00:00 24,3 20,4 9 5 ONO 1017,9 20 0,0
18.08.2018 00:00:00 24,7 20,4 11 6 ONO 1017,6 20 0,0
17.08.2018 23:00:00 25,0 20,5 15 8 NO 1017,4 20 -
17.08.2018 22:00:00 25,6 20,4 21 11 NO 1016,8 20 0,0
17.08.2018 21:00:00 26,8 19,4 16 9 ONO 1015,7 20 0,0
17.08.2018 20:00:00 28,6 20,6 8 4 O 1015,2 20 -
17.08.2018 19:00:00 30,0 20,0 5 3 O 1014,6 20 0,0
17.08.2018 18:00:00 30,3 20,3 11 6 OZO 1015,0 20 0,0
17.08.2018 17:00:00 30,3 20,3 18 10 ONO 1014,7 20 -
17.08.2018 16:00:00 32,1 16,4 11 6 O 1015,5 20 0,0
17.08.2018 15:00:00 31,0 17,0 5 3 ZZO 1015,9 20 0,0
17.08.2018 14:00:00 29,5 17,0 5 3 NNO 1016,4 20 -
17.08.2018 13:00:00 28,2 18,6 8 4 W 1016,5 19 0,0
17.08.2018 12:00:00 25,7 17,9 5 3 ZW 1016,9 20 0,0
17.08.2018 11:00:00 25,3 18,7 5 3 ZZW 1016,7 19 -
17.08.2018 10:00:00 24,9 19,0 5 3 Z 1016,1 20 0,0
17.08.2018 09:00:00 23,0 19,0 2 1 ZZW 1015,7 19 0,0
17.08.2018 08:00:00 21,9 18,9 4 2 ZW 1015,9 19 -
17.08.2018 07:00:00 21,9 18,7 4 2 ZZW 1015,8 20 0,0
17.08.2018 06:00:00 21,8 18,4 5 3 W 1015,5 19 0,0
17.08.2018 05:00:00 21,7 18,7 4 2 ZW 1015,3 19 -
17.08.2018 04:00:00 21,7 18,7 4 2 W 1015,4 19 0,0
17.08.2018 03:00:00 21,5 18,9 5 3 W 1015,5 18 0,0
17.08.2018 02:00:00 21,9 18,9 4 2 Z 1015,9 15 -
17.08.2018 01:00:00 21,7 18,7 4 2 W 1015,9 16 0,0
17.08.2018 00:00:00 21,7 18,9 8 4 WNW 1015,9 19 0,0
16.08.2018 23:00:00 21,6 18,4 4 2 ZW 1015,8 19 -
16.08.2018 22:00:00 21,4 18,4 5 3 NO 1015,1 20 0,0
16.08.2018 21:00:00 21,7 17,5 4 2 ZZW 1014,3 20 0,0
16.08.2018 20:00:00 22,3 17,7 8 4 NNW 1013,0 20 -
16.08.2018 19:00:00 22,2 16,2 15 8 WZW 1014,5 20 0,4
16.08.2018 18:00:00 21,7 18,5 15 8 ZZW 1016,2 11 0,4
16.08.2018 17:00:00 22,7 19,9 16 9 NW 1015,5 16 -
16.08.2018 16:00:00 26,0 21,0 8 4 O 1015,0 2,7 6,0
16.08.2018 15:00:00 31,1 17,0 31 17 ONO 1015,1 14 0,0
16.08.2018 14:00:00 32,4 18,9 8 4 OZO 1015,1 20 -
16.08.2018 13:00:00 31,6 18,6 5 3 ONO 1015,5 20 0,0
16.08.2018 12:00:00 30,6 18,3 8 4 OZO 1016,2 20 0,0
16.08.2018 11:00:00 28,8 20,0 9 5 OZO 1016,3 20 -
16.08.2018 10:00:00 27,2 19,3 5 3 Z 1016,2 20 0,0
16.08.2018 09:00:00 25,2 18,4 5 3 W 1016,1 20 0,0
16.08.2018 08:00:00 23,0 18,5 4 2 W 1016,1 17 -
16.08.2018 07:00:00 23,0 18,3 5 3 ZZW 1015,8 20 0,0
16.08.2018 06:00:00 23,8 18,4 5 3 WZW 1015,6 20 0,0
16.08.2018 05:00:00 24,2 19,3 8 4 WNW 1015,6 20 -
16.08.2018 04:00:00 24,6 19,4 4 2 WNW 1015,9 20 0,0
16.08.2018 03:00:00 25,1 19,7 5 3 ZZO 1016,2 20 0,0
16.08.2018 02:00:00 26,1 20,9 4 2 WNW 1016,5 20 -
16.08.2018 01:00:00 25,6 19,5 5 3 Z 1016,6 20 0,0
16.08.2018 00:00:00 26,5 20,8 2 1 ZZO 1016,2 20 0,0
15.08.2018 23:00:00 26,8 19,4 5 3 OZO 1015,9 20 -
15.08.2018 22:00:00 27,7 22,0 9 5 ONO 1016,1 20 0,0
15.08.2018 21:00:00 28,4 21,7 5 3 Z 1016,3 20 0,0
15.08.2018 20:00:00 29,0 21,5 11 6 OZO 1015,8 20 -
15.08.2018 19:00:00 30,0 21,7 13 7 O 1015,3 20 0,0
15.08.2018 18:00:00 31,2 21,4 15 8 O 1015,0 20 0,0
15.08.2018 17:00:00 32,1 21,0 15 8 O 1014,9 20 -
15.08.2018 16:00:00 32,2 22,0 15 8 O 1015,5 19 0,0
15.08.2018 15:00:00 30,7 21,8 18 10 ONO 1016,0 20 0,0
15.08.2018 14:00:00 33,2 21,4 18 10 O 1016,3 20 -
15.08.2018 13:00:00 32,8 21,0 8 4 O 1016,7 20 0,0
15.08.2018 12:00:00 31,3 21,5 9 5 OZO 1017,2 20 0,0
15.08.2018 11:00:00 29,7 22,2 9 5 O 1017,3 20 -
15.08.2018 10:00:00 27,5 22,4 2 1 ZZO 1017,6 19 0,0
15.08.2018 09:00:00 26,2 22,5 5 3 Z 1017,6 17 0,0
15.08.2018 08:00:00 24,8 22,1 0 0 N 1017,3 15 -
15.08.2018 07:00:00 24,6 22,1 0 0 N 1016,9 16 0,0
15.08.2018 06:00:00 24,8 22,1 2 1 NNO 1016,7 15 0,0
15.08.2018 05:00:00 25,3 22,4 5 3 O 1016,8 17 -
15.08.2018 04:00:00 25,5 22,6 4 2 ONO 1016,8 16 0,0
15.08.2018 03:00:00 25,8 22,7 9 5 ONO 1016,9 16 0,0
15.08.2018 02:00:00 26,0 22,7 13 7 ONO 1017,2 16 -
15.08.2018 01:00:00 26,3 22,8 15 8 ONO 1017,1 17 0,0
15.08.2018 00:00:00 26,8 22,4 11 6 ONO 1016,8 18 0,0
14.08.2018 23:00:00 27,3 22,3 9 5 O 1016,6 18 -
14.08.2018 22:00:00 27,7 22,4 11 6 O 1016,1 19 0,0
14.08.2018 21:00:00 28,2 22,4 16 9 ONO 1015,2 18 0,0
14.08.2018 20:00:00 29,5 22,5 18 10 ONO 1014,6 19 -
14.08.2018 19:00:00 31,0 22,0 21 11 ONO 1014,6 20 0,0
14.08.2018 18:00:00 32,5 21,7 22 12 ONO 1014,3 20 0,0
14.08.2018 17:00:00 33,7 21,8 18 10 O 1014,2 19 -
14.08.2018 16:00:00 34,4 20,7 18 10 ONO 1014,3 20 0,0
14.08.2018 15:00:00 34,1 20,5 15 8 O 1014,8 20 0,0
14.08.2018 14:00:00 33,9 19,6 9 5 O 1015,0 20 -
14.08.2018 13:00:00 33,7 19,8 11 6 ONO 1015,5 19 0,0
14.08.2018 12:00:00 31,8 21,0 8 4 OZO 1015,8 17 0,0
14.08.2018 11:00:00 29,9 22,1 9 5 O 1015,7 14 -
14.08.2018 10:00:00 28,5 22,7 8 4 O 1015,3 10 0,0
14.08.2018 09:00:00 26,8 21,3 4 2 ZZW 1015,3 9 0,0
14.08.2018 08:00:00 24,8 21,1 4 2 NO 1014,8 9 -
14.08.2018 07:00:00 24,4 20,3 9 5 NO 1013,9 10 0,0
14.08.2018 06:00:00 24,2 19,7 4 2 N 1012,7 9 0,0
14.08.2018 05:00:00 25,4 20,2 4 2 ZW 1012,4 11 -
14.08.2018 04:00:00 26,1 20,4 2 1 N 1012,5 10 0,0
14.08.2018 03:00:00 26,6 20,7 4 2 W 1012,4 11 0,0
14.08.2018 02:00:00 26,8 21,1 5 3 WZW 1012,5 9 -
14.08.2018 01:00:00 27,6 20,7 4 2 OZO 1012,4 13 0,0

tt = temperatuur
td = dauwpunt
ff = windsnelheid
dd = windrichting
ppp = luchtdruk
vv = zicht
rr = neerslag

Weerstations in de omgeving